Preview of NWS' New Version of Forecast
This preview is not operational and should not be used for support decisions.
Latest weather observations around

Whidbey Island, Naval Air Station (KNUW)

Using English Units (Switch to International System of Units)
Date/ Time (PST) Wind (mph) Vis. (mi) Weather Sky Cond. Temp (°F) Rel. Humidity Wind Chill (°F) Heat Index (°F) Pressure Precip. (in)
Air Dwpt 6 hour Altimeter (inHg) Sea level (inHg) 1 hr 3 hr 6 hr
Max Min
Jan 16 13:56 E 9 10 Clear CLR 52 32     46%     29.76 29.75      
Jan 16 12:56 ESE 9 10 Mostly Cloudy FEW070 BKN120 BKN180 BKN250 54 32     43%     29.78 29.78      
Jan 16 11:56 ESE 14 10 Mostly Cloudy FEW080 BKN130 BKN180 BKN250 48 32     54% 42   29.81 29.8      
Jan 16 10:56 ESE 8 10 Cloudy SCT090 BKN130 BKN180 OVC250 48 32     54% 44   29.83 29.83      
Jan 16 09:56 ESE 11 10 Mostly Cloudy FEW080 BKN120 BKN250 43 34     70% 37   29.83 29.83      
Jan 16 08:56 E 9 10 Mostly Cloudy FEW090 SCT150 BKN250 40 31     70% 34   29.83 29.83      
Jan 16 07:56 E 7 10 Mostly Cloudy SCT160 BKN250 38 29     70% 33   29.81 29.81      
Jan 16 06:56 ESE 6 10 Mostly Cloudy SCT160 BKN250 35 29     78% 30   29.8 29.8      
Jan 16 05:56 ESE 7 10 Mostly Cloudy FEW160 BKN250 36 30     79% 30   29.81 29.8      
Jan 16 04:56 ESE 8 10 Mostly Clear FEW240 36 30     79% 30   29.8 29.8      
Jan 16 03:56 E 7 10 Mostly Clear FEW100 FEW240 37 31     78% 32   29.81 29.8      
Jan 16 02:56 E 9 10 Mostly Clear FEW100 FEW240 39 33     79% 33   29.82 29.82      
Jan 16 01:56 ESE 11 10 Partly Cloudy FEW100 FEW150 SCT240 39 32     76% 32   29.81 29.81      
Jan 16 00:56 ESE 11 10 Partly Cloudy FEW110 FEW170 SCT240 38 31     76% 30   29.82 29.82      
Jan 15 23:56 ESE 11 10 Mostly Cloudy SCT110 BKN170 BKN240 41 33     73% 34   29.82 29.82      
Jan 15 22:56 ESE 9 10 Mostly Cloudy SCT100 BKN170 BKN240 42 33     70% 37   29.83 29.83      
Jan 15 21:56 E 7 10 Mostly Cloudy SCT120 BKN150 BKN190 44 33     65% 40   29.81 29.81      
Jan 15 20:56 E 7 10 Mostly Cloudy SCT120 BKN160 BKN250 43 33     68% 39   29.81 29.81      
Jan 15 19:56 E 8 10 Mostly Cloudy SCT100 BKN130 BKN160 BKN250 44 33     65% 40   29.82 29.82      
Jan 15 18:56 E 5 10 Cloudy SCT100 BKN130 BKN170 OVC240 43 33     68% 40   29.83 29.82      
Jan 15 17:56 Calm 10 Cloudy SCT120 BKN150 BKN170 OVC250 44 32     62%     29.83 29.83      
Jan 15 16:56 E 7 10 Mostly Cloudy SCT120 BKN150 BKN180 BKN250 45 33     63% 41   29.84 29.83      
Jan 15 15:56 ESE 6 10 Mostly Cloudy SCT100 BKN160 BKN200 BKN250 46 35     65% 43   29.85 29.85      
Jan 15 14:56 E 5 10 Mostly Cloudy SCT110 BKN180 BKN240 48 34     58% 46   29.86 29.86      
Jan 15 13:56 ESE 6 10 Mostly Cloudy SCT120 SCT160 BKN240 48 31     51% 45   29.86 29.86      
Jan 15 12:56 ESE 7 10 Mostly Cloudy FEW150 BKN250 49 32     52% 46   29.88 29.88      
Jan 15 11:56 ESE 6 10 Partly Cloudy FEW150 SCT250 47 33     58% 44   29.9 29.9      
Jan 15 10:56 ESE 7 10 Partly Cloudy FEW150 SCT250 46 35     65% 42   29.92 29.92      
Jan 15 09:56 ESE 11 10 Mostly Cloudy FEW150 BKN250 42 34     73% 36   29.93 29.92      
Jan 15 07:56 SE 8 10 Clear   36 32     85% 30   29.92 29.92      
Jan 15 06:56 ESE 10 10 Mostly Cloudy FEW012 SCT140 BKN250 38 32     79% 31   29.92 29.92      
Notice The following observation data may not be complete
Jan 15 05:56   10 Mostly Cloudy FEW010 SCT140 BKN250          %              
Jan 15 04:56 ESE 11 10 Partly Cloudy FEW140 SCT250 38 33     82% 30   29.92 29.92      
Jan 15 03:56 ESE 10 10 Mostly Cloudy FEW140 BKN250 38 33     82% 31   29.93 29.93      
Jan 15 02:56   10 Partly Cloudy FEW140 SCT220 38 33     82%     29.94 29.94      
Jan 15 01:56 ESE 9 10 Partly Cloudy SCT200 37 33     85% 30   29.95 29.94      
Jan 15 00:56 ESE 6 0.12 Fog OVC003 37 34     89% 32   29.96 29.96      
Jan 14 23:56 ESE 8 0.12 Fog BKN003 37 33     85% 31   29.96 29.96      
Jan 14 22:56 Calm 0.12 Fog OVC002 39 35     86%     29.98 29.98      
Jan 14 21:56 ESE 5 0.12 Fog OVC002 38 34     85% 34   29.98 29.98      
Jan 14 21:19 ESE 6 0.12 Fog VV003 37 34     89% 32   29.98        
Jan 14 20:56 ESE 6 8 Fog FEW250 38 34     85% 33   29.98 29.98      
Jan 14 19:56 SE 6 10 Mostly Clear FEW250 36 31     82% 31   29.99 29.98      
Jan 14 18:56 E 6 10 Mostly Clear FEW250 36 31     82% 31   29.99 29.99      
Jan 14 17:56 SE 5 10 Mostly Clear FEW250 39 33     79% 36   30 29.99      
Jan 14 16:56 ESE 3 10 Mostly Clear FEW250 45 34     65% 44   30 30      
Jan 14 15:56 Calm 10 Mostly Clear FEW250 50 37     61%     30.02 30.01      
Jan 14 14:56 Calm 10 Mostly Clear FEW250 52 37     57%     30.02 30.02      
Jan 14 13:56 ESE 5 10 Mostly Clear FEW250 52 36     54%     30.04 30.03      
Jan 14 12:56 NW 3 10 Mostly Clear FEW009 49 36     61% 48   30.06 30.05      
Jan 14 11:56 SE 3 10 Mostly Clear FEW009 FEW250 48 38     68% 47   30.08 30.07      
Jan 14 10:56 ESE 3 10 Mostly Clear FEW008 FEW250 46 38     73% 45   30.11 30.11      
Jan 14 09:56 SE 5 10 Mostly Clear FEW007 FEW250 40 37     89% 37   30.13 30.12      
Jan 14 08:56 ESE 5 10 Patchy Fog FEW005 FEW250 34 32     92% 30   30.13 30.12      
Jan 14 07:56 ESE 7 7 Patchy Fog FEW003 FEW007 SCT250 33 29     85% 27   30.12 30.12      
Jan 14 07:45 ESE 6 1 Fog/Mist FEW003 SCT007 33 30     88% 28   30.12        
Jan 14 06:56 ESE 7 0.75 Fog/Mist FEW003 BKN007 32 28     85% 26   30.13 30.13      
Jan 14 05:56 ESE 3 0.25 Fog VV003 33 29     85% 30   30.14 30.14      
Jan 14 04:56 Calm 0.5 Fog SCT003 BKN007 33 30     88%     30.15 30.15      
Jan 14 03:56 Calm 3 Fog/Mist SCT003 SCT007 33 31     92%     30.17 30.16      
Jan 14 02:56 ESE 3 0.5 Fog SCT003 BKN007 34 30     85% 31   30.17 30.17      
Jan 14 01:56 ESE 5 1 Fog/Mist SCT003 SCT008 35 32     88% 31   30.18 30.18      
Jan 14 00:56 SE 3   Fog SCT003 BKN008 35 32     88% 32   30.18 30.18      
Jan 13 23:56 Calm 1 Fog/Mist SCT003 35 32     88%     30.19 30.19      
Jan 13 22:56 E 3 2 Fog/Mist SCT003 38 35     89% 36   30.2 30.2      
Jan 13 21:56 SE 7 6 Fog/Mist FEW004 37 32     82% 32   30.2 30.19      
Jan 13 20:56 ESE 5 8 Patchy Fog CLR 40 37     89% 37   30.2 30.19      
Jan 13 19:56 Calm 10 Clear CLR 40 36     86%     30.18 30.18      
Jan 13 18:56 Calm 10 Clear CLR 39 34     82%     30.18 30.18      
Jan 13 17:56 SSE 3 10 Clear CLR 43 36     76% 41   30.18 30.18      
Jan 13 16:56 Calm 10 Mostly Cloudy BKN220 48 36     63%     30.18 30.18      
Jan 13 15:56 Calm 10 Partly Cloudy SCT220 53 36     52%     30.18 30.18      
Jan 13 14:56 NNW 7 10 Partly Cloudy SCT220 53 39     59%     30.18 30.18      
May 15 05:56 SW 10 1 Fog/Mist SKC BKN005 OVC120 53 50     89%     29.95        
May 15 03:40 SW 6 1.5 Fog/Mist SCT004 SCT120 53 50     89%     29.93        
May 14 10:56 W 7 10 Partly Cloudy SCT250 64 53     67%     30 30      
May 13 15:56 W 5 10 Partly Cloudy SCT250 70 54     57%       29.96      
May 13 10:56 W 9 10 Mostly Clear FEW250 65 53     65%     30.02 30.01      
May 13 09:56 WNW 5 10 Clear CLR 63 53     70%     30.02 30.02      
May 12 16:56 WSW 7 10 Mostly Clear FEW250 64 51     63%       30.06      
May 11 19:56 W 3 10 Mostly Clear FEW035 56 50     80%     30.23 30.23      
May 11 06:56   10 Mostly Cloudy BKN026 BKN200 53 47     80%     30.28 30.28 0    
Jun 12 05:56 SW 10 8 Cloudy BKN009 OVC055 55 50     83%     30.03        
Jun 11 19:56 WSW 7 10 Partly Cloudy FEW055 FEW120 SCT170 SCT250 59 47     64%     30.03 30.03      
Jun 11 18:56 W 9 10 Partly Cloudy FEW050 FEW110 SCT210 SCT250 59 48     67%     30.02 30.02      
Jun 10 18:56 WSW 3 10 Mostly Cloudy FEW050 SCT080 SCT120 BKN240 57 47     69%     29.92        
Jun 10 16:56 WSW 11 10 Mostly Cloudy FEW030 SCT045 SCT070 SCT210 BKN250 58 47     67%     29.91        
Jun 10 14:56 W 9 10 Mostly Cloudy FEW026 SCT042 SCT110 BKN220 BKN250 59 47     64%     29.91 29.91      
Jun 09 23:56 SE 7 10 Mostly Cloudy FEW032 BKN070 BKN090 54 45     72%     29.88 29.88      
Jun 08 18:56 ESE 5 10 Light Rain SCT032 BKN045 BKN060 OVC140 56 49     77%       29.94 0    
Jun 07 21:56 3 10 Cloudy FEW050 SCT090 BKN110 OVC220 60 42     51%              
Jun 07 11:56 WNW 7 10 Mostly Cloudy FEW050 SCT120 BKN190 63 47     56%     29.79 29.79      
Jun 07 05:56 Calm 10 Cloudy FEW120 SCT160 OVC250 52 43     71%     29.9